パンスターズ彗星

C/2019 B3 ( PanSTARRS )

English version
Home page
Updated on August 19, 2019

---------------------------------------------------------------------

・ プロフィール

発見日 2019年1月24日
発見光度 19.6等
発見者 Pan-STARRS 1 telescope (Haleakala)

・ 写真集

・ 軌道要素

Epoch 2021 Jan. 26.0 TT = JDT 2459240.5                                         
T 2021 Jan. 19.98786 TT                                 Williams                
q   6.8236304            (2000.0)            P               Q                  
z  -0.0003593      Peri.  263.90360     -0.11700599     +0.99281326             
 +/-0.0000116      Node   358.43030     +0.00242444     -0.02501659             
e   1.0024518      Incl.   66.53876     -0.99312825     -0.11702995             
H                                                                               
From 71 observations 2019 Jan. 24-June 23, mean residual 0".4.                  

・ 光度変化

        m1 = 5.5 + 5 logΔ + 10.0 log r

---------------------------------------------------------------------

軌道要素はM.P.E.C. 2019-Q15に掲載されたものです。
光度グラフはComet for Windowsで作成したものです。

---------------------------------------------------------------------

Copyright(C) Seiichi Yoshida (comet@aerith.net). All rights reserved.